KMTNet SAAO LOG BOOK 2015-02-27 1  / 1 pages  
                         
Observer: Lim and Shin KMTNet SAAO Observation CCD: 18K CCD    
Weather: Cloudy Temp: 19/15/13 Hum: 52/77/89 Moon:  72 % Av. seeing:  1.8 D.Temp: -151.1 -132.8 -211.6 -112.7 21.8 21.5 23.4 18.9 3.45E-05
D.Temp: -152.3 -134.6 -212.4 -116.8 19.4 19.2 21.2 16.5 3.02E-05
   
                         
File Number Object PROJID Exp. Start Exp. Time Filter FWHM Comments    
8849-8851 flushing ALL 17:50 60.0 none        
8852-8861 bias   18:01 0.0 none   TCS crash at UT = 18:31    
8862 v1162.ck ENG 18:36 20.0 B 2.1 Focus = -5.82 -10 -350    
8863     18:40 20.0 B 1.8 Focus = -5.86    
8864     18:42 20.0 B 1.4 Focus = -5.90    
8865     18:44 20.0 B 1.5 Focus = -5.94    
8866-8895     18:47 2.0 B 1.6-1.7 wind direction: SE, wind speed: 36km/h, 8889: K-chip fits lost    
8896-8925     19:31 2.0 B 1.5-1.9 cloud passing?, 8904: M-chip fits lost    
8926-8955     20:16 2.0 B 1.6-1.8 a few water drops were on the floor    
8956 N2784-3 SN 21:18 20.0 B   Focus = -5.94    
8957     21:20 20.0 B        
8958     21:22 60.0 B 1.8      
8959     21:25 60.0 V 1.9      
8960     21:27 60.0 I        
8961 N2784-4   21:30 60.0 B   This frame is for N2784-3, object name should be changed to N2784-3    
8962 N2784-4   21:33 60.0 B        
8963     21:35 60.0 V 2.0      
8964     21:38 60.0 I 1.6      
8965 N2784-5   21:40 60.0 B        
8966     21:42 60.0 V        
8967     21:45 60.0 I                
8968 N2784-6 21:47 60.0 B                
8969     21:50 60.0 V                
8970     21:52 60.0 I 1.4              
8971 N2784-7   21:55 60.0 B        
8972     21:57 60.0 V        
8973     22:00 60.0 I 1.3 8973: T-chip fits lost    
8974 N2784-3   22:02 60.0 B        
8975     22:05 60.0 V      
8976     22:07 60.0 I 1.4      
8977 N2784-4   22:10 60.0 B        
8978     22:12 60.0 V 1.8              
8979     22:15 60.0 I   Wind direction: E, wind speed: 30km/h        
8980 N2784-5   22:17 60.0 B                
8981     22:20 60.0 V        
8982     22:22 60.0 I 1.9      
8983 N2784-6   22:24 60.0 B 1.9 Did not move telescope… The object name should be chnaged to N2784-5    
8984 N2784-6   22:27 60.0 B        
8985     22:29 60.0 V        
8986     22:32 60.0 I        
8987 N2784-7   22:34 60.0 B        
8988     22:37 60.0 V        
8989     22:39 60.0 I 1.8      
8990 N2784-3   22:42 60.0 B        
8991     22:44 60.0 V        
8992     22:46 60.0 I        
8993 N2784-4   22:49 60.0 B        
8994     22:51 60.0 V        
8995     22:54 60.0 I 1.6      
8996 N2784-5   22:56 60.0 B        
8997     22:59 60.0 V        
8998     23:01 60.0 I 1.8      
8999 N2784-6   23:04 60.0 B        
9000     23:06 60.0 V 1.9      
9001     23:09 60.0 I        
9002 N2784-7   23:11 60.0 B        
9003     23:14 60.0 V        
9004     23:16 60.0 I 1.6      
9005 N2784-3   23:19 60.0 B        
9006     23:21 60.0 V        
9007     23:24 60.0 I 1.8      
9008 N2784-4   23:27 60.0 B        
9009     23:29 60.0 V        
9010     23:32 60.0 I        
                   
 
 
                       
Observer: Lim and Shin KMTNet SAAO Observation CCD: 18K CCD    
Weather: Cloudy Temp: 19/15/13 Hum: 52/77/89 Moon:  63 % Av. seeing:  72% D.Temp: -151.1 -132.8 -211.6 -112.7 21.8 21.5 23.4 18.9 3.45E-05
D.Temp: -152.3 -134.6 -212.4 -116.8 19.4 19.2 21.2 16.5 3.02E-05
   
                         
9011 N2784-5   23:34 60.0 B    
9012     23:37 60.0 V    
9013     23:39 60.0 I 1.7  
9014 N2784-6   23:42 60.0 B    
9015     23:44 60.0 V   humidity is about 80% inside the dome
9016     23:47 60.0 I    
9017 N2784-7   23:49 60.0 B    
9018     23:52 60.0 V    
9019     23:54 60.0 I    
9020 N2784-3   23:57 60.0 B 1.8  
9021     23:59 60.0 V    
9022     00:02 60.0 I   T-Tdew exceeded 2.5 degree!!! Dome close!
9023-9027 dark ALL 01:01 60.0 R   wind direction: E, wind speed: 26km/h
9028-9037 bias   01:13 0.0 R